Quick links : Home Page : Contact Us : Index : Site Map : Search Site : Ephemerides


113P/Spitaler

Orbital Elements

The following orbital elements are taken from MPC 54168:
113P/Spitaler
Epoch 2008 Apr. 4.0 TT = JDT 2454560.5
T 2008 Mar. 23.4067 TT                                  MPC
q   2.128514             (2000.0)            P               Q
n   0.1390948      Peri.   49.8470      +0.4343077      -0.9004134
a   3.689171       Node    14.4734      +0.7928229      +0.3688610
e   0.423037       Incl.    5.7754      +0.4275614      +0.2306454
P   7.09
From 166 observations 1993-2001, mean residual 0".7.
Elements are also available for the current standard epoch:
113P/Spitaler
Epoch 2008 Nov. 30.0 TT = JDT 2454800.5
T 2008 Mar. 23.3868 TT                                  MPC
q   2.128350             (2000.0)            P               Q
n   0.1390675      Peri.   49.8421      +0.4345014      -0.9003203
a   3.689654       Node    14.4660      +0.7927388      +0.3690356
e   0.423157       Incl.    5.7755      +0.4275204      +0.2307296
P   7.09
An explanation of the orbital elements is available.

These orbital elements are also available in forms suitable for loading into a number of popular planetarium-type software programs.


Ephemeris

The following ephemeris is at intervals of five days. A daily ephemeris covering the same time interval is also available.

Personalized ephemerides for this (and other) objects may be generated using the Minor Planet & Comet Ephemeris Service.

Recent magnitude estimates for this comet (as reported to the ICQ) may be available.

Date    TT    R. A. (2000) Decl.     Delta      r     Elong.  Phase   m1    m2

WARNING!

This comet gets close to the sun during the period covered in the ephemeris below. Observers are warned to be wary of observing comets near the sun. NEVER point any kind of optical instrument at the sun--instant blindness will be the probable result.

2008 09 11 09 17.53 +20 08.0 3.261 2.479 33.1 12.8 20.0 22.8 2008 09 16 09 26.41 +19 28.6 3.243 2.497 35.8 13.6 20.0 22.8 2008 09 21 09 35.05 +18 48.9 3.222 2.516 38.5 14.4 20.0 22.9 2008 09 26 09 43.45 +18 09.1 3.200 2.534 41.3 15.1 20.1 22.9 2008 10 01 09 51.60 +17 29.3 3.174 2.553 44.1 15.8 20.1 22.9 2008 10 06 09 59.48 +16 49.8 3.147 2.572 47.0 16.5 20.1 22.9 2008 10 11 10 07.10 +16 10.9 3.117 2.591 50.0 17.2 20.1 22.9 2008 10 16 10 14.45 +15 32.5 3.084 2.610 53.1 17.8 20.1 23.0 2008 10 21 10 21.51 +14 55.0 3.050 2.629 56.2 18.3 20.1 23.0 2008 10 26 10 28.28 +14 18.6 3.013 2.649 59.4 18.8 20.1 23.0 2008 10 31 10 34.75 +13 43.4 2.974 2.669 62.7 19.3 20.1 23.0 2008 11 05 10 40.90 +13 09.7 2.933 2.689 66.1 19.7 20.1 23.0 2008 11 10 10 46.70 +12 37.7 2.890 2.709 69.6 20.0 20.1 23.0 2008 11 15 10 52.16 +12 07.5 2.845 2.729 73.2 20.3 20.1 23.0 2008 11 20 10 57.25 +11 39.4 2.799 2.749 76.9 20.5 20.1 22.9 2008 11 25 11 01.95 +11 13.5 2.752 2.769 80.7 20.6 20.1 22.9 2008 11 30 11 06.24 +10 50.1 2.704 2.790 84.6 20.6 20.1 22.9 2008 12 05 11 10.08 +10 29.4 2.655 2.810 88.7 20.5 20.1 22.9 2008 12 10 11 13.46 +10 11.4 2.606 2.831 92.8 20.3 20.1 22.8 2008 12 15 11 16.35 +09 56.5 2.556 2.851 97.2 20.0 20.1 22.8 2008 12 20 11 18.74 +09 44.6 2.508 2.872 101.6 19.6 20.1 22.8 2008 12 25 11 20.58 +09 36.1 2.460 2.893 106.2 19.1 20.1 22.7 2008 12 30 11 21.87 +09 30.9 2.414 2.914 111.0 18.4 20.1 22.7 2009 01 04 11 22.57 +09 29.1 2.369 2.935 115.9 17.5 20.0 22.6 2009 01 09 11 22.68 +09 30.7 2.327 2.955 120.9 16.6 20.0 22.6 2009 01 14 11 22.20 +09 35.6 2.289 2.976 126.1 15.5 20.0 22.5 2009 01 19 11 21.12 +09 43.7 2.254 2.997 131.5 14.2 20.0 22.5 2009 01 24 11 19.46 +09 54.8 2.223 3.018 137.0 12.9 20.0 22.4 2009 01 29 11 17.24 +10 08.5 2.197 3.039 142.6 11.4 20.0 22.3 2009 02 03 11 14.52 +10 24.4 2.177 3.060 148.3 9.7 20.0 22.3 2009 02 08 11 11.35 +10 42.0 2.163 3.081 154.1 8.0 20.1 22.2 2009 02 13 11 07.80 +11 00.8 2.156 3.102 160.0 6.3 20.1 22.1 2009 02 18 11 03.96 +11 20.1 2.155 3.123 165.8 4.5 20.1 22.0 2009 02 23 10 59.93 +11 39.3 2.162 3.143 171.2 2.7 20.1 22.0 2009 02 28 10 55.80 +11 57.7 2.176 3.164 175.1 1.5 20.2 21.9 2009 03 05 10 51.70 +12 14.9 2.198 3.185 173.3 2.1 20.2 22.0 2009 03 10 10 47.72 +12 30.2 2.227 3.206 168.3 3.6 20.3 22.1 2009 03 15 10 43.96 +12 43.4 2.264 3.227 162.7 5.3 20.4 22.3 2009 03 20 10 40.50 +12 54.0 2.307 3.247 157.1 6.9 20.4 22.4 2009 03 25 10 37.40 +13 01.8 2.357 3.268 151.4 8.4 20.5 22.5 2009 03 30 10 34.74 +13 06.8 2.413 3.288 145.9 9.8 20.6 22.6 2009 04 04 10 32.54 +13 08.9 2.475 3.309 140.5 11.1 20.7 22.8 2009 04 09 10 30.84 +13 08.0 2.543 3.329 135.3 12.2 20.7 22.9 2009 04 14 10 29.64 +13 04.4 2.614 3.350 130.1 13.2 20.8 23.0 2009 04 19 10 28.94 +12 58.0 2.690 3.370 125.1 14.1 20.9 23.1 2009 04 24 10 28.73 +12 49.1 2.770 3.390 120.3 14.8 21.0 23.2 2009 04 29 10 29.00 +12 37.8 2.853 3.411 115.6 15.4 21.1 23.3 2009 05 04 10 29.72 +12 24.2 2.938 3.431 111.0 15.9 21.2 23.4 2009 05 09 10 30.88 +12 08.4 3.026 3.451 106.5 16.3 21.3 23.5 2009 05 14 10 32.44 +11 50.7 3.115 3.471 102.1 16.5 21.4 23.6 2009 05 19 10 34.37 +11 31.1 3.205 3.491 97.9 16.7 21.5 23.6 2009 05 24 10 36.65 +11 09.9 3.296 3.511 93.7 16.7 21.5 23.7 2009 05 29 10 39.25 +10 47.0 3.388 3.530 89.7 16.7 21.6 23.8 2009 06 03 10 42.15 +10 22.6 3.479 3.550 85.7 16.6 21.7 23.8 2009 06 08 10 45.31 +09 56.9 3.570 3.570 81.8 16.3 21.8 23.9 2009 06 13 10 48.72 +09 29.9 3.661 3.589 78.0 16.1 21.9 24.0 2009 06 18 10 52.35 +09 01.7 3.750 3.608 74.2 15.7 21.9 24.0 2009 06 23 10 56.18 +08 32.5 3.838 3.628 70.5 15.3 22.0 24.1 2009 06 28 11 00.19 +08 02.2 3.925 3.647 66.8 14.8 22.1 24.1 2009 07 03 11 04.36 +07 31.0 4.010 3.666 63.2 14.3 22.2 24.1 2009 07 08 11 08.68 +06 59.0 4.093 3.685 59.6 13.8 22.2 24.2 2009 07 13 11 13.13 +06 26.2 4.173 3.704 56.1 13.2 22.3 24.2 2009 07 18 11 17.69 +05 52.8 4.252 3.723 52.6 12.5 22.4 24.2 2009 07 23 11 22.36 +05 18.7 4.327 3.742 49.1 11.8 22.4 24.3 2009 07 28 11 27.13 +04 44.1 4.399 3.760 45.7 11.1 22.5 24.3 2009 08 02 11 31.97 +04 09.0 4.468 3.779 42.2 10.4 22.5 24.3 2009 08 07 11 36.88 +03 33.4 4.534 3.797 38.8 9.6 22.6 24.3 2009 08 12 11 41.86 +02 57.6 4.596 3.815 35.4 8.8 22.6 24.3 2009 08 17 11 46.88 +02 21.4 4.655 3.834 32.0 8.0 22.7 24.3 2009 08 22 11 51.96 +01 45.0 4.710 3.852 28.6 7.2 22.7 24.3 2009 08 27 11 57.06 +01 08.4 4.761 3.870 25.1 6.4 22.8 24.3 2009 09 01 12 02.20 +00 31.8 4.807 3.888 21.7 5.5 22.8 24.3 2009 09 06 12 07.36 -00 04.9 4.849 3.905 18.3 4.7 22.8 24.3 2009 09 11 12 12.52 -00 41.5 4.887 3.923 14.9 3.8 22.9 24.3 2009 09 16 12 17.70 -01 18.1 4.921 3.941 11.5 2.9 22.9 24.2 2009 09 21 12 22.88 -01 54.5 4.950 3.958 8.0 2.0 22.9 24.2 2009 09 26 12 28.04 -02 30.7 4.974 3.976 4.5 1.1 23.0 24.1 2009 10 01 12 33.20 -03 06.6 4.994 3.993 1.1 0.3 23.0 24.1 2009 10 06 12 38.32 -03 42.2 5.008 4.010 2.5 0.6 23.0 24.1 2009 10 11 12 43.42 -04 17.4 5.018 4.027 6.0 1.5 23.1 24.2 2009 10 16 12 48.48 -04 52.1 5.023 4.044 9.6 2.4 23.1 24.3

Back to Observable Comets

MPC CBAT ICQ

Valid HTML 4.01!